Regional Weather Roundup
Issued by NWS

Home | Current Version | Previous Version | Text Only | Print | Product List | Glossary On
Versions: 1 2 3 4 5 6 7 8 9 10 11 12 13 14 15 16 17 18 19 20 21 22 23 24 25 26 27 28 29 30 31 32 33 34 35 36 37 38 39 40 41 42 43 44 45 46 47 48 49 50
000
ASUS43 KMKX 301411
RWRWI

WISCONSIN REGIONAL WEATHER ROUNDUP
NATIONAL WEATHER SERVICE MILWAUKEE/SULLIVAN WI
900 AM CDT MON MAY 30 2016

NOTE: "FAIR" INDICATES FEW OR NO CLOUDS BELOW 12,000 FEET WITH NO
SIGNIFICANT WEATHER AND/OR OBSTRUCTIONS TO VISIBILITY.

WIZ001-002-006>008-014>016-023>028-301500-
NORTHWEST WISCONSIN

CITY           SKY/WX    TMP DP  RH WIND       PRES   REMARKS
SUPERIOR ARPT  SUNNY     68  57  66 SW8       29.97F
ASHLAND        SUNNY     68  55  63 SW8       29.98S
HAYWARD        SUNNY     65  54  67 S3        30.02R
SIREN          SUNNY     69  55  62 W5        30.01S
CUMBERLAND     SUNNY     68  55  64 W6        30.02S
RICE LAKE      SUNNY     65  56  72 CALM      30.03F
CHETEK         SUNNY     64  60  87 CALM      30.03S
LADYSMITH      SUNNY     67  55  66 W3        30.04R
EAU CLAIRE     SUNNY     69  58  67 VRB3      30.01S
MENOMONIE      SUNNY     70  62  76 CALM      30.03S
NEW RICHMOND   MOSUNNY   66  61  82 SW3       30.03R
OSCEOLA        CLOUDY    67  64  87 CALM      30.05R
$$

WIZ003>005-009-010-017-018-301500-
NORTH CENTRAL WISCONSIN

CITY           SKY/WX    TMP DP  RH WIND       PRES   REMARKS
MANITOWISH WTR NOT AVBL
ARBOR VITAE    SUNNY     65  54  67 NW6       30.01R
WOODRUFF       SUNNY     65  54  67 NW6       30.01R
RHINELANDER    SUNNY     66  52  60 W9        30.02R
EAGLE RIVER      N/A     65  51  60 W13G20    30.00S
LAND O LAKES   SUNNY     64  52  64 NW10G16   30.00F
PHILLIPS       SUNNY     64  55  73 W3        30.02R
TOMAHAWK       SUNNY     65  54  67 W8        30.03R
MEDFORD        SUNNY     65  56  71 NW5       30.03R
MERRILL        SUNNY     66  55  68 NW8       30.03R
$$

WIZ029-030-035-036-043>047-301500-
CENTRAL WISCONSIN

CITY           SKY/WX    TMP DP  RH WIND       PRES   REMARKS
WAUSAU         SUNNY     69  54  58 NW6       30.01R
MOSINEE        SUNNY     70  55  60 SW5       30.04R
MARSHFIELD     SUNNY     69  56  62 NW6       30.02S
STEVENS POINT  SUNNY     67  55  65 W5        30.04R
WAUPACA        SUNNY     73  58  60 NW3       30.02R
WAUTOMA        SUNNY    N/A N/A N/A NW6       30.03S
WISC RAPIDS    CLOUDY    71  54  54 CALM      30.04R
CAMP DOUGLAS   CLOUDY    70  70 100 W5        30.04R
$$

WIZ011>013-019>022-031-037>040-048>050-301500-
NORTHEAST WISCONSIN

CITY           SKY/WX    TMP DP  RH WIND       PRES   REMARKS
ANTIGO         SUNNY     65  55  69 NW5       30.03R
SHAWANO        SUNNY     71  56  59 NW7       30.00S
OCONTO         SUNNY     70  59  68 W6        29.99S
STURGEON BAY   NOT AVBL
GREEN BAY      SUNNY     71  59  65 VRB5      30.00S
MANITOWOC      SUNNY     71  60  68 W7        30.01R
APPLETON       NOT AVBL
CLINTONVILLE   SUNNY     70  54  56 CALM      30.01R
OSHKOSH        MOSUNNY   71  60  68 NW5       30.02R
$$

WIZ032>034-041-042-053>061-301500-
SOUTHWEST WISCONSIN

CITY           SKY/WX    TMP DP  RH WIND       PRES   REMARKS
LA CROSSE      MOSUNNY   66  61  84 S5        30.03S
SPARTA         CLOUDY    67  60  78 CALM      30.05S
VIROQUA        MOSUNNY   70  59  69 CALM      30.06R
BOSCOBEL       SUNNY     68  62  81 CALM      30.05S
PRAIRIE DU CHI SUNNY     67  60  78 CALM      30.06R
PLATTEVILLE    SUNNY     71  62  73 N5        30.06R
$$

WIZ056-057-062-063-064-067-068-301500-
SOUTH CENTRAL WISCONSIN

CITY           SKY/WX    TMP DP  RH WIND       PRES   REMARKS
REEDSBURG      CLOUDY    68  61  76 CALM      30.04S
BARABOO/DELLS  CLOUDY    70  57  64 CALM      30.04S
LONE ROCK      MOSUNNY   64  62  93 SW3       30.05R
MINERAL POINT  SUNNY     72  61  68 NW7       30.06R
MADISON        PTSUNNY   71  61  70 NW3       30.03S
MIDDLETON      SUNNY     72  61  68 NW3       30.05R
WATERTOWN      SUNNY     71  62  74 NW5       30.02F
MONROE         MOSUNNY   72  59  64 W3        30.05R
JANESVILLE     SUNNY     73  59  60 CALM      30.02S
$$

WIZ051-052-058>065-066-070>072-301500-
SOUTHEAST WISCONSIN

CITY           SKY/WX    TMP DP  RH WIND       PRES   REMARKS
MILWAUKEE      MOSUNNY   75  59  57 NW7       30.02S
WAUKESHA       SUNNY     70  59  68 W6        30.04S
MILWAUKEE/TIMM SUNNY     72  55  56 MISG      30.03S
RACINE         SUNNY     74  58  57 W5        30.04S
BURLINGTON     SUNNY     73  57  58 NW5       30.03S
KENOSHA        SUNNY     75  60  59 N5        30.03S
FOND DU LAC    SUNNY     70  62  76 W3        30.02S
SHEBOYGAN      MOSUNNY   71  59  65 NW5       30.01S
WEST BEND      SUNNY     72  59  64 W5        30.02F
JUNEAU         SUNNY     69  60  73 CALM      30.03F
$$

LSZ147-162-301500-
LAKE SUPERIOR

STATION/POSITION TIME  TEMP    WIND        PRES    WAVE
                       AIR SEA DIR/SP/G            HT/PER
                 (UTC) (F)     (DEG/KT/KT) (MB)    (FT/S)
W MID LAKE BUOY  1350   44 38  250/ 12/ 14 1014.0R   2/ 3
DEVILS ISLAND    1400   55     240/ 19/ 21 1014.5R
SAXON HARBOR     1300   65     200/  4/  7 1014.6R
$$

LMZ867-665-643>646-301500-
LAKE MICHIGAN

STATION/POSITION TIME  TEMP    WIND        PRES    WAVE
                       AIR SEA DIR/SP/G            HT/PER
                 (UTC) (F)     (DEG/KT/KT) (MB)    (FT/S)
CHAMBERS ISLAND  1340   65     210/  4/  7 1015.2R
N MID LAKE BUOY  1350   52 48  240/  8/  8 1014.7R   1
NORTHPORT PIER   1300   67     250/  4/  8 1014.9R
KEWAUNEE LAKESHO 1300   67     300/  4/  6 1015.0R
SHEBOYGAN LAKESH 1400   68      20/  3/  4 1016.3R
PORT WASHINGTON  1300   72     290/  6/  9 1016.9
S MID LAKE BUOY  1350   56 52  250/  4/  4 1016.5R   0
KENOSHA   LAKESH 1400   69     360/  2/  3 1016.3F
$$

TC  - TEMPERATURE IN CELSIUS
VSB - VISIBILITY IN STATUTE MILES
WCI - WIND CHILL INDEX
HX  - HEAT INDEX





USA.gov is the U.S. government's official web portal to all federal, state and local government web resources and services.